CW5316 Weather Reports


Display with metric or nautical units.
time (UTC)temp
F
wind
direction
speed
MPH
gust
MPH
rain 1hr
in
rain 24hr
in
rain mn
in
humidity
%
barometer
mb
20260508013521 57 0 0.0 2.0 0.00 0.04 0.01 76 1017.4
20260508013043 58 0 0.0 0.0 0.00 0.04 0.01 74 1017.5
20260508012521 57 0 0.0 0.0 0.00 0.04 0.01 73 1017.6
20260508012020 57 0 0.0 1.0 0.00 0.04 0.01 73 1017.7
20260508011547 58 0 0.0 2.0 0.00 0.04 0.01 72 1017.8
20260508011021 58 0 0.0 2.0 0.00 0.04 0.01 72 1017.8
20260508010524 58 238 0.0 2.0 0.00 0.04 0.01 72 1017.9
20260508010056 58 0 0.0 1.0 0.00 0.04 0.01 70 1017.8
20260508005523 58 0 0.0 2.0 0.00 0.04 0.01 71 1017.9
20260508005021 58 0 0.0 4.0 0.00 0.04 0.01 71 1018.0
20260508004538 57 0 0.0 4.0 0.00 0.04 0.01 68 1018.1
20260508004019 58 84 0.0 3.0 0.00 0.04 0.01 69 1018.1
20260508003520 58 0 0.0 3.0 0.00 0.04 0.01 71 1018.0
20260508003035 58 248 0.0 3.0 0.00 0.04 0.01 70 1018.1
20260508002522 58 0 0.0 1.0 0.00 0.04 0.01 71 1018.1
20260508002021 58 0 0.0 2.0 0.00 0.04 0.01 72 1018.0
20260508001545 58 0 0.0 2.0 0.00 0.04 0.01 71 1018.0
20260508001021 58 0 0.0 2.0 0.00 0.04 0.01 71 1017.9
20260508000521 58 0 0.0 4.0 0.00 0.04 0.01 74 1017.9
20260508000045 57 0 0.0 4.0 0.00 0.04 0.01 73 1017.9
20260507235524 58 119 1.0 4.0 0.00 0.04 0.01 71 1018.0
20260507235024 57 0 0.0 2.0 0.00 0.04 0.01 73 1017.9
20260507234539 57 0 0.0 2.0 0.00 0.04 0.01 71 1018.0
20260507234021 58 81 0.0 3.0 0.00 0.04 0.01 73 1017.9
20260507233520 58 0 1.0 3.0 0.00 0.04 0.01 70 1017.9
20260507233041 58 0 0.0 3.0 0.00 0.04 0.01 71 1018.0
20260507232523 58 0 0.0 2.0 0.00 0.04 0.01 71 1018.1
20260507232021 58 0 0.0 3.0 0.00 0.04 0.01 70 1018.1
20260507231534 57 0 0.0 4.0 0.00 0.04 0.01 72 1018.1
20260507231020 58 0 0.0 4.0 0.00 0.04 0.01 72 1018.2
20260507230520 58 0 0.0 3.0 0.00 0.04 0.01 72 1018.2
20260507230106 57 256 0.0 3.0 0.00 0.04 0.01 73 1018.3
20260507225521 57 0 0.0 3.0 0.00 0.04 0.01 72 1018.3
20260507225021 57 0 0.0 3.0 0.00 0.04 0.01 74 1018.3
20260507224542 57 241 0.0 2.0 0.00 0.04 0.01 74 1018.3
20260507224025 56 0 0.0 3.0 0.00 0.04 0.01 73 1018.4
20260507223527 58 0 1.0 3.0 0.00 0.04 0.01 73 1018.5
20260507223119 58 0 0.0 3.0 0.00 0.04 0.01 77 1018.4
20260507222521 57 187 0.0 3.0 0.00 0.04 0.01 76 1018.4
20260507222018 56 0 0.0 3.0 0.00 0.04 0.01 76 1018.5
20260507221538 56 0 0.0 3.0 0.00 0.04 0.01 75 1018.5
20260507221022 56 106 0.0 3.0 0.00 0.04 0.01 74 1018.6
20260507220521 56 91 1.0 3.0 0.00 0.04 0.01 75 1018.6
20260507220038 56 216 0.0 1.0 0.00 0.04 0.01 76 1018.7
20260507215520 56 0 0.0 2.0 0.00 0.04 0.01 74 1018.7
20260507215020 57 0 0.0 3.0 0.00 0.04 0.01 75 1018.8
20260507214539 57 0 0.0 3.0 0.00 0.04 0.01 78 1018.8
20260507214020 55 0 0.0 3.0 0.00 0.04 0.01 78 1018.8
20260507213521 55 0 0.0 3.0 0.00 0.04 0.01 78 1019.0
20260507213046 56 96 0.0 4.0 0.00 0.04 0.01 76 1019.0
20260507212521 58 250 2.0 4.0 0.00 0.04 0.01 74 1019.2
20260507212021 58 254 1.0 6.0 0.00 0.04 0.01 77 1019.1
20260507211539 57 260 1.0 6.0 0.00 0.04 0.01 76 1019.2
20260507211019 55 0 1.0 5.0 0.00 0.04 0.01 76 1019.3
20260507210522 56 0 1.0 3.0 0.00 0.04 0.01 77 1019.4
20260507210046 56 0 0.0 3.0 0.00 0.04 0.01 78 1019.4
20260507205522 56 0 1.0 3.0 0.00 0.04 0.01 81 1019.4
20260507205021 54 198 0.0 4.0 0.00 0.04 0.01 79 1019.4
20260507204537 54 0 0.0 4.0 0.00 0.04 0.01 80 1019.5
20260507204021 54 0 1.0 4.0 0.00 0.04 0.01 79 1019.5
20260507203523 54 113 1.0 4.0 0.00 0.04 0.01 78 1019.6
20260507203038 54 272 0.0 2.0 0.00 0.04 0.01 84 1019.7
20260507202520 54 0 0.0 3.0 0.00 0.04 0.01 78 1019.7
20260507202023 54 232 0.0 3.0 0.00 0.04 0.01 81 1019.8
20260507201544 53 0 0.0 3.0 0.00 0.04 0.01 82 1019.8
20260507201029 52 0 0.0 3.0 0.00 0.04 0.01 82 1019.8
20260507200521 52 103 1.0 3.0 0.00 0.04 0.01 83 1019.9
20260507200052 52 84 0.0 4.0 0.00 0.04 0.01 85 1019.9
20260507195520 52 0 0.0 4.0 0.00 0.04 0.01 85 1020.0
20260507195021 51 191 1.0 4.0 0.00 0.04 0.01 84 1020.1
20260507194538 52 0 1.0 4.0 0.00 0.04 0.01 86 1020.0
20260507194020 52 150 1.0 4.0 0.00 0.04 0.01 86 1020.1
20260507193521 51 0 0.0 1.0 0.00 0.04 0.01 88 1020.1
20260507193044 50 0 0.0 1.0 0.00 0.04 0.01 88 1020.2
20260507192520 50 0 0.0 0.0 0.00 0.04 0.01 88 1020.1
20260507192032 49 0 0.0 3.0 0.00 0.04 0.01 88 1020.2
20260507191543 49 0 0.0 3.0 0.00 0.04 0.01 88 1020.2
20260507191022 50 209 0.0 3.0 0.00 0.04 0.01 88 1020.3
20260507190520 49 0 0.0 0.0 0.00 0.04 0.01 89 1020.4
20260507190042 49 0 0.0 0.0 0.00 0.04 0.01 89 1020.4
20260507185520 49 0 0.0 3.0 0.00 0.04 0.01 89 1020.4
20260507185021 48 0 0.0 3.0 0.00 0.04 0.01 89 1020.4
20260507184538 49 98 0.0 2.0 0.00 0.04 0.01 90 1020.5
20260507184021 49 0 0.0 0.0 0.00 0.04 0.01 90 1020.4
20260507183521 49 0 0.0 1.0 0.00 0.04 0.01 91 1020.4
20260507183041 48 0 0.0 1.0 0.00 0.04 0.01 90 1020.4
20260507182520 49 0 0.0 0.0 0.00 0.04 0.01 93 1020.4
20260507182021 48 0 0.0 0.0 0.00 0.04 0.01 91 1020.4
20260507181536 48 0 0.0 0.0 0.00 0.04 0.01 92 1020.4
20260507181024 48 0 0.0 0.0 0.00 0.04 0.01 92 1020.3
20260507180525 48 0 0.0 2.0 0.00 0.04 0.01 92 1020.4
20260507180035 47 0 0.0 2.0 0.00 0.04 0.01 92 1020.4
20260507175520 47 0 0.0 2.0 0.00 0.04 0.01 92 1020.4
20260507175020 48 0 0.0 0.0 0.00 0.04 0.01 92 1020.4
20260507174552 48 0 0.0 0.0 0.00 0.04 0.01 93 1020.4
20260507174020 48 0 0.0 0.0 0.00 0.04 0.01 92 1020.5
20260507173521 48 0 0.0 0.0 0.00 0.04 0.01 92 1020.5
20260507173039 47 0 0.0 1.0 0.00 0.04 0.01 92 1020.4
20260507172520 47 0 0.0 2.0 0.00 0.04 0.01 92 1020.5
20260507172019 47 0 0.0 2.0 0.00 0.04 0.01 92 1020.5
20260507171539 47 0 0.0 2.0 0.00 0.04 0.01 92 1020.4
20260507171021 47 0 0.0 3.0 0.00 0.04 0.01 92 1020.3
20260507170521 47 178 0.0 3.0 0.00 0.04 0.01 92 1020.3
20260507170044 47 0 0.0 3.0 0.00 0.04 0.01 92 1020.3
20260507165520 47 107 0.0 3.0 0.00 0.04 0.01 92 1020.3
20260507165020 48 0 0.0 0.0 0.00 0.04 0.01 92 1020.3
20260507164535 48 0 0.0 0.0 0.00 0.04 0.01 93 1020.2
20260507164022 47 0 0.0 0.0 0.00 0.04 0.01 92 1020.4
20260507163520 48 0 0.0 0.0 0.00 0.04 0.01 92 1020.2
20260507163035 48 0 0.0 0.0 0.00 0.04 0.01 92 1020.2
20260507162520 48 0 0.0 0.0 0.00 0.04 0.01 92 1020.3
20260507162023 47 0 0.0 0.0 0.00 0.04 0.01 91 1020.3
20260507161553 47 0 0.0 0.0 0.00 0.04 0.01 91 1020.3
20260507161021 47 0 0.0 0.0 0.00 0.04 0.01 91 1020.3
20260507160523 47 0 0.0 0.0 0.00 0.04 0.01 91 1020.3
20260507160043 47 0 0.0 2.0 0.00 0.04 0.01 90 1020.2
20260507155520 47 0 0.0 3.0 0.00 0.04 0.01 90 1020.3
20260507155020 47 204 1.0 3.0 0.00 0.04 0.01 91 1020.3
20260507154543 47 0 0.0 2.0 0.00 0.04 0.01 90 1020.2
20260507154021 47 161 0.0 2.0 0.00 0.04 0.01 90 1020.4
20260507153521 47 0 0.0 2.0 0.00 0.04 0.01 91 1020.3
20260507153043 47 0 0.0 0.0 0.00 0.04 0.01 90 1020.3
20260507152521 48 0 0.0 0.0 0.00 0.04 0.01 90 1020.3
20260507152021 48 0 0.0 2.0 0.00 0.04 0.01 90 1020.2
20260507151540 48 0 0.0 2.0 0.00 0.04 0.01 91 1020.2
20260507151021 47 60 0.0 4.0 0.00 0.04 0.01 90 1020.2
20260507150521 47 0 0.0 4.0 0.00 0.04 0.01 90 1020.2
20260507150046 47 0 0.0 4.0 0.00 0.04 0.01 91 1020.2
20260507145520 47 0 0.0 3.0 0.00 0.04 0.01 92 1020.3
20260507145019 47 0 0.0 3.0 0.00 0.04 0.01 92 1020.3
20260507144535 47 94 0.0 2.0 0.00 0.04 0.01 93 1020.4
20260507144021 46 0 0.0 4.0 0.00 0.04 0.01 93 1020.4
20260507143520 46 0 0.0 4.0 0.00 0.04 0.01 93 1020.4
20260507143034 47 0 0.0 2.0 0.00 0.04 0.01 93 1020.4
20260507142520 46 0 0.0 2.0 0.00 0.04 0.01 93 1020.4
20260507142021 46 99 0.0 3.0 0.00 0.04 0.01 93 1020.4
20260507141542 46 0 0.0 3.0 0.00 0.04 0.01 93 1020.4
20260507141021 46 0 0.0 3.0 0.00 0.04 0.01 93 1020.3
20260507140523 46 0 0.0 2.0 0.00 0.04 0.01 93 1020.3
20260507140040 46 0 0.0 2.0 0.00 0.04 0.01 94 1020.3
20260507135524 46 168 0.0 3.0 0.00 0.04 0.01 94 1020.2
20260507135024 46 0 0.0 3.0 0.00 0.04 0.01 94 1020.2
20260507134538 46 121 0.0 3.0 0.00 0.04 0.01 94 1020.1
20260507134020 46 0 0.0 3.0 0.00 0.04 0.01 94 1020.0
20260507133523 46 103 1.0 3.0 0.00 0.04 0.01 94 1019.9
20260507133038 46 0 0.0 0.0 0.00 0.04 0.01 94 1019.9
20260507132522 46 0 0.0 2.0 0.00 0.04 0.01 94 1019.9
20260507132019 46 0 0.0 2.0 0.00 0.04 0.01 94 1020.1
20260507131535 46 163 0.0 0.0 0.00 0.04 0.01 94 1020.0
20260507131022 46 0 0.0 0.0 0.00 0.04 0.01 94 1020.0
20260507130520 46 0 0.0 0.0 0.00 0.04 0.01 94 1020.0
20260507130056 46 0 0.0 0.0 0.00 0.04 0.01 94 1019.9
20260507125523 46 0 0.0 0.0 0.00 0.04 0.01 94 1020.0
20260507125019 46 0 0.0 0.0 0.00 0.04 0.01 94 1020.0
20260507124542 46 0 0.0 0.0 0.00 0.04 0.01 93 1020.0
20260507124019 46 0 0.0 0.0 0.00 0.04 0.01 93 1020.0
20260507123520 46 0 0.0 0.0 0.00 0.04 0.01 93 1020.1
20260507123043 46 0 0.0 0.0 0.00 0.04 0.01 93 1020.0
20260507122518 46 0 0.0 0.0 0.00 0.04 0.01 93 1020.1
20260507122021 46 0 0.0 0.0 0.00 0.04 0.01 93 1020.0
20260507121538 46 0 0.0 2.0 0.00 0.04 0.01 93 1020.2
20260507121021 46 0 0.0 3.0 0.00 0.04 0.01 93 1020.2
20260507120529 46 115 0.0 4.0 0.00 0.04 0.01 93 1020.2
20260507120043 46 0 0.0 4.0 0.00 0.04 0.01 93 1020.4
20260507115520 46 97 1.0 4.0 0.00 0.04 0.01 93 1020.4
20260507115024 46 117 0.0 4.0 0.00 0.04 0.01 93 1020.4
20260507114541 46 115 1.0 3.0 0.00 0.04 0.01 92 1020.5
20260507114021 46 130 0.0 4.0 0.00 0.04 0.01 92 1020.6
20260507113520 46 136 0.0 4.0 0.00 0.04 0.01 92 1020.6
20260507113040 46 0 1.0 4.0 0.00 0.04 0.01 92 1020.7
20260507112519 47 167 0.0 3.0 0.00 0.04 0.01 93 1020.8
20260507112019 47 0 0.0 3.0 0.00 0.04 0.01 93 1020.7
20260507111539 47 134 0.0 3.0 0.00 0.04 0.01 93 1020.8
20260507111018 47 0 0.0 3.0 0.00 0.04 0.01 93 1020.8
20260507110518 47 125 0.0 4.0 0.00 0.04 0.01 93 1020.8
20260507110039 47 180 2.0 4.0 0.00 0.04 0.01 93 1020.8
20260507105517 47 109 0.0 4.0 0.00 0.04 0.01 93 1020.8
20260507105019 47 138 2.0 6.0 0.00 0.04 0.01 93 1020.7
20260507104536 47 107 0.0 6.0 0.00 0.04 0.01 93 1020.8
20260507104027 47 140 1.0 6.0 0.00 0.04 0.01 94 1020.8
20260507103520 47 0 0.0 3.0 0.00 0.04 0.01 94 1020.9
20260507103042 47 0 0.0 3.0 0.00 0.04 0.01 94 1020.9
20260507102521 47 0 0.0 5.0 0.00 0.04 0.01 94 1020.8
20260507102021 47 0 0.0 5.0 0.00 0.04 0.01 94 1020.8
20260507101543 47 182 0.0 2.0 0.00 0.04 0.01 94 1020.8
20260507101023 47 168 0.0 6.0 0.00 0.04 0.01 94 1020.8
20260507100519 47 0 0.0 6.0 0.00 0.04 0.01 94 1020.8
20260507100049 47 0 1.0 6.0 0.00 0.04 0.01 95 1020.9
20260507095520 47 198 1.0 4.0 0.00 0.04 0.01 95 1020.8
20260507095020 47 131 0.0 4.0 0.00 0.04 0.01 95 1020.8
20260507094536 47 194 1.0 4.0 0.00 0.04 0.01 95 1020.8
20260507094017 47 0 1.0 6.0 0.00 0.04 0.01 94 1020.9
20260507093523 47 159 1.0 6.0 0.00 0.04 0.01 95 1020.8
20260507093035 47 0 2.0 6.0 0.00 0.04 0.01 94 1020.8
20260507092522 48 119 2.0 6.0 0.00 0.04 0.01 94 1020.8
20260507092019 48 126 1.0 4.0 0.00 0.04 0.01 94 1020.9
20260507091540 48 117 1.0 6.0 0.00 0.04 0.01 94 1020.9
20260507091018 48 171 2.0 7.0 0.00 0.04 0.01 94 1021.0
20260507090520 48 108 2.0 7.0 0.00 0.04 0.01 94 1021.0
20260507090041 48 110 2.0 7.0 0.01 0.04 0.01 95 1020.9
20260507085521 48 155 1.0 4.0 0.01 0.04 0.01 95 1021.0
20260507085021 48 159 1.0 4.0 0.01 0.04 0.01 95 1021.0
20260507084546 48 109 1.0 4.0 0.01 0.04 0.01 95 1021.0
20260507084018 48 116 0.0 6.0 0.01 0.04 0.01 95 1021.0
20260507083519 48 109 1.0 6.0 0.01 0.04 0.01 95 1020.9
20260507083051 48 166 2.0 6.0 0.01 0.04 0.01 95 1021.0
20260507082522 48 121 0.0 3.0 0.01 0.04 0.01 95 1020.9
20260507082018 48 0 0.0 3.0 0.01 0.04 0.01 95 1020.9
20260507081537 48 0 0.0 3.0 0.01 0.04 0.01 95 1020.9
20260507081021 48 104 0.0 3.0 0.01 0.04 0.01 95 1021.0
20260507080520 48 98 1.0 5.0 0.01 0.04 0.01 95 1020.8
20260507080042 48 0 1.0 5.0 0.00 0.03 0.00 95 1020.9
20260507075523 49 112 1.0 4.0 0.00 0.03 0.00 95 1020.9
20260507075021 49 98 0.0 4.0 0.00 0.03 0.00 95 1020.9
20260507074539 49 0 1.0 4.0 0.00 0.03 0.00 95 1020.8
20260507074020 49 107 0.0 4.0 0.00 0.03 0.00 95 1020.8
20260507073524 49 117 1.0 3.0 0.00 0.03 0.00 95 1020.8
20260507073050 49 0 0.0 0.0 0.00 0.03 0.00 95 1020.8
20260507072521 49 0 0.0 0.0 0.01 0.03 0.00 95 1020.7
20260507072020 49 0 0.0 0.0 0.01 0.03 0.00 95 1020.9
20260507071539 49 0 0.0 0.0 0.01 0.03 0.00 95 1020.8
20260507071020 49 0 0.0 0.0 0.02 0.03 0.00 95 1020.8
20260507070522 49 0 0.0 0.0 0.02 0.03 0.00 95 1020.9
20260507070039 49 0 0.0 0.0 0.02 0.03 0.00 95 1020.8
20260507065522 49 0 0.0 0.0 0.02 0.03 0.03 95 1020.6
20260507065020 49 0 0.0 1.0 0.02 0.03 0.03 95 1020.7
20260507064539 49 0 0.0 1.0 0.02 0.03 0.03 95 1020.8
20260507064021 49 0 0.0 1.0 0.02 0.03 0.03 95 1020.7
20260507063524 49 0 0.0 0.0 0.02 0.03 0.03 95 1020.8
20260507063049 49 0 0.0 0.0 0.02 0.03 0.03 95 1021.0
20260507062521 49 0 0.0 0.0 0.01 0.02 0.02 95 1021.0
20260507062021 50 0 0.0 0.0 0.01 0.02 0.02 95 1021.0
20260507061541 50 0 0.0 0.0 0.01 0.02 0.02 95 1021.0
20260507061023 50 0 0.0 0.0 0.00 0.01 0.01 95 1021.0
20260507060521 50 0 0.0 0.0 0.00 0.01 0.01 95 1021.1
20260507060038 50 0 0.0 0.0 0.01 0.01 0.01 95 1021.2
20260507055521 49 0 0.0 0.0 0.01 0.01 0.01 95 1021.2
20260507055020 49 0 0.0 0.0 0.01 0.01 0.01 94 1021.1
20260507054542 50 0 0.0 0.0 0.01 0.01 0.01 95 1021.1
20260507054022 49 0 0.0 0.0 0.01 0.01 0.01 94 1021.2
20260507053521 49 0 0.0 0.0 0.01 0.01 0.01 94 1021.2
20260507053037 49 0 0.0 0.0 0.01 0.01 0.01 94 1021.1
20260507052522 49 0 0.0 0.0 0.01 0.01 0.01 94 1021.2
20260507052022 50 0 0.0 0.0 0.01 0.01 0.01 94 1021.2
20260507051535 50 0 0.0 0.0 0.01 0.01 0.01 94 1021.1
20260507051021 50 0 0.0 0.0 0.01 0.01 0.01 95 1021.1
20260507050520 50 0 0.0 0.0 0.01 0.01 0.01 95 1021.1
20260507050043 50 0 0.0 0.0 0.00 0.00 0.00 94 1021.1
20260507045521 50 0 0.0 0.0 0.00 0.00 0.00 94 1021.2
20260507045021 50 0 0.0 0.0 0.00 0.00 0.00 94 1021.3
20260507044542 50 0 0.0 0.0 0.00 0.00 0.00 94 1021.2
20260507044021 50 0 0.0 0.0 0.00 0.00 0.00 94 1021.2
20260507043520 50 0 0.0 0.0 0.00 0.00 0.00 94 1021.1
20260507043041 50 0 0.0 0.0 0.00 0.00 0.00 94 1021.2
20260507042520 50 0 0.0 0.0 0.00 0.00 0.00 94 1021.3
20260507042021 50 0 0.0 1.0 0.00 0.00 0.00 94 1021.2
20260507041544 50 0 0.0 1.0 0.00 0.00 0.00 94 1021.4
20260507041021 51 0 0.0 0.0 0.00 0.00 0.00 94 1021.3
20260507040521 51 0 0.0 0.0 0.00 0.00 0.00 94 1021.3
20260507040035 50 0 0.0 0.0 0.00 0.00 0.00 94 1021.2
20260507035517 51 0 0.0 0.0 0.00 0.00 0.00 94 1021.0
20260507035021 51 0 0.0 0.0 0.00 0.00 0.00 94 1021.0
20260507034546 51 0 0.0 0.0 0.00 0.00 0.00 93 1020.9
20260507034021 51 0 0.0 0.0 0.00 0.00 0.00 93 1020.9
20260507033522 51 0 0.0 0.0 0.00 0.00 0.00 93 1020.8
20260507033039 51 0 0.0 0.0 0.00 0.00 0.00 93 1020.8
20260507032524 51 0 0.0 0.0 0.00 0.00 0.00 93 1020.8
20260507032021 51 0 0.0 0.0 0.00 0.00 0.00 93 1020.7
20260507031535 51 0 0.0 0.0 0.00 0.00 0.00 93 1020.7
20260507031024 51 0 0.0 0.0 0.00 0.00 0.00 92 1020.7
20260507030523 51 0 0.0 0.0 0.00 0.00 0.00 93 1020.6
20260507030035 51 0 0.0 0.0 0.00 0.00 0.00 92 1020.6
20260507025521 51 0 0.0 0.0 0.00 0.00 0.00 92 1020.6
20260507025021 51 0 0.0 0.0 0.00 0.00 0.00 92 1020.6
20260507024551 51 0 0.0 0.0 0.00 0.00 0.00 93 1020.5
20260507024021 51 0 0.0 0.0 0.00 0.00 0.00 93 1020.5
20260507023529 51 0 0.0 0.0 0.00 0.00 0.00 93 1020.5
20260507023041 51 0 0.0 0.0 0.00 0.00 0.00 92 1020.6
20260507022522 51 0 0.0 0.0 0.00 0.00 0.00 92 1020.5
20260507022022 51 0 0.0 0.0 0.00 0.00 0.00 92 1020.5
20260507021535 51 0 0.0 0.0 0.00 0.00 0.00 92 1020.6
20260507021025 51 0 0.0 0.0 0.00 0.00 0.00 92 1020.6
20260507020522 51 0 0.0 0.0 0.00 0.00 0.00 92 1020.5
20260507020043 51 0 0.0 0.0 0.00 0.00 0.00 92 1020.4
20260507015521 51 0 0.0 0.0 0.00 0.00 0.00 92 1020.4
20260507015021 51 0 0.0 0.0 0.00 0.00 0.00 92 1020.4
20260507014552 51 0 0.0 0.0 0.00 0.00 0.00 93 1020.4
20260507014021 51 0 0.0 0.0 0.00 0.00 0.00 92 1020.5